GW3558 Weather Reports


Display with metric or nautical units.
time (UTC)temp
F
wind
direction
speed
MPH
gust
MPH
rain 1hr
in
rain 24hr
in
rain mn
in
humidity
%
barometer
mb
20260505220514 67 89 2.0 7.0 0.00 0.00 0.00 41 1018.4
20260505220041 67 83 3.0 9.0 0.00 0.00 0.00 44 1018.5
20260505215516 67 101 4.0 9.0 0.00 0.00 0.00 41 1018.6
20260505215017 67 98 3.0 12.0 0.00 0.00 0.00 42 1018.5
20260505214536 67 98 3.0 12.0 0.00 0.00 0.00 44 1018.6
20260505214013 66 111 3.0 9.0 0.00 0.00 0.00 43 1018.6
20260505213520 67 98 3.0 9.0 0.00 0.00 0.00 42 1018.6
20260505213043 67 87 3.0 7.0 0.00 0.00 0.00 43 1018.7
20260505212516 67 46 4.0 7.0 0.00 0.00 0.00 43 1018.7
20260505212016 66 46 1.0 6.0 0.00 0.00 0.00 41 1018.8
20260505211541 66 92 2.0 10.0 0.00 0.00 0.00 40 1018.8
20260505211017 66 88 3.0 11.0 0.00 0.00 0.00 42 1018.8
20260505210518 67 83 3.0 6.0 0.00 0.00 0.00 42 1018.9
20260505210042 66 55 2.0 7.0 0.00 0.00 0.00 41 1018.9
20260505205534 66 74 3.0 7.0 0.00 0.00 0.00 43 1019.0
20260505205017 66 105 3.0 7.0 0.00 0.00 0.00 44 1019.0
20260505204555 66 121 3.0 9.0 0.00 0.00 0.00 42 1019.1
20260505204022 66 40 4.0 9.0 0.00 0.00 0.00 41 1019.2
20260505203521 66 269 2.0 8.0 0.00 0.00 0.00 41 1019.2
20260505203058 66 96 4.0 8.0 0.00 0.00 0.00 40 1019.1
20260505202516 66 76 4.0 8.0 0.00 0.00 0.00 41 1019.1
20260505202015 65 347 4.0 9.0 0.00 0.00 0.00 44 1018.9
20260505201537 65 111 3.0 9.0 0.00 0.00 0.00 42 1018.9
20260505201016 66 65 2.0 11.0 0.00 0.00 0.00 42 1018.9
20260505200516 66 72 4.0 11.0 0.00 0.00 0.00 42 1019.1
20260505200044 66 65 4.0 8.0 0.00 0.00 0.00 43 1019.1
20260505195516 65 142 4.0 9.0 0.00 0.00 0.00 44 1019.3
20260505195014 65 107 4.0 9.0 0.00 0.00 0.00 41 1019.2
20260505194552 65 102 3.0 8.0 0.00 0.00 0.00 40 1019.3
20260505194019 65 82 3.0 10.0 0.00 0.00 0.00 40 1019.1
20260505193520 65 121 3.0 7.0 0.00 0.00 0.00 42 1019.1
20260505193110 65 132 4.0 10.0 0.00 0.00 0.00 44 1019.1
20260505192516 65 101 6.0 10.0 0.00 0.00 0.00 43 1018.9
20260505192017 65 53 2.0 9.0 0.00 0.00 0.00 41 1019.1
20260505191559 64 112 4.0 9.0 0.00 0.00 0.00 45 1019.0
20260505191018 65 88 5.0 10.0 0.00 0.00 0.00 40 1019.1
20260505190515 65 137 4.0 10.0 0.00 0.00 0.00 41 1019.0
20260505190053 65 106 3.0 9.0 0.00 0.00 0.00 43 1018.9
20260505185519 65 111 3.0 9.0 0.00 0.00 0.00 43 1019.1
20260505185029 65 104 4.0 9.0 0.00 0.00 0.00 42 1018.9
20260505184535 65 107 4.0 8.0 0.00 0.00 0.00 43 1019.0
20260505184114 65 84 2.0 8.0 0.00 0.00 0.00 43 1019.3
20260505183515 65 98 3.0 8.0 0.00 0.00 0.00 45 1019.3
20260505183054 64 74 3.0 8.0 0.00 0.00 0.00 44 1019.2
20260505182518 64 124 3.0 6.0 0.00 0.00 0.00 46 1019.2
20260505182029 64 73 3.0 10.0 0.00 0.00 0.00 43 1019.1
20260505181552 64 107 5.0 10.0 0.00 0.00 0.00 46 1019.1
20260505181016 63 101 3.0 8.0 0.00 0.00 0.00 46 1019.1
20260505180524 63 84 3.0 8.0 0.00 0.00 0.00 46 1018.9
20260505180053 63 99 3.0 7.0 0.00 0.00 0.00 45 1019.1
20260505175517 63 84 2.0 8.0 0.00 0.00 0.00 46 1018.9
20260505175016 63 84 3.0 8.0 0.00 0.00 0.00 48 1018.9
20260505174543 63 104 2.0 8.0 0.00 0.00 0.00 45 1019.1
20260505174013 63 97 4.0 8.0 0.00 0.00 0.00 46 1019.0
20260505173515 62 105 3.0 8.0 0.00 0.00 0.00 45 1019.1
20260505173046 62 94 4.0 8.0 0.00 0.00 0.00 47 1019.1
20260505172514 62 107 3.0 9.0 0.00 0.00 0.00 46 1018.9
20260505172014 62 155 4.0 9.0 0.00 0.00 0.00 45 1018.8
20260505171550 62 80 3.0 10.0 0.00 0.00 0.00 45 1018.9
20260505171016 62 101 4.0 10.0 0.00 0.00 0.00 46 1018.8
20260505170516 62 105 3.0 7.0 0.00 0.00 0.00 47 1018.9
20260505170042 62 86 2.0 7.0 0.00 0.00 0.00 47 1018.8
20260505165519 62 99 3.0 8.0 0.00 0.00 0.00 51 1018.8
20260505165019 62 133 3.0 8.0 0.00 0.00 0.00 47 1018.8
20260505164549 62 136 3.0 8.0 0.00 0.00 0.00 46 1018.8
20260505164017 61 141 2.0 8.0 0.00 0.00 0.00 48 1018.8
20260505163519 61 142 2.0 9.0 0.00 0.00 0.00 43 1018.8
20260505163058 61 105 3.0 9.0 0.00 0.00 0.00 45 1018.7
20260505162527 61 113 3.0 7.0 0.00 0.00 0.00 45 1018.8
20260505162017 61 137 3.0 7.0 0.00 0.00 0.00 45 1018.8
20260505161547 60 159 2.0 8.0 0.00 0.00 0.00 46 1018.7
20260505161018 61 134 3.0 8.0 0.00 0.00 0.00 47 1018.6
20260505160516 61 146 3.0 7.0 0.00 0.00 0.00 44 1018.6
20260505160415 61 107 3.0 7.0 0.00 0.00 0.00 47 1018.7
20260505153102 60 94 2.0 7.0 0.00 0.00 0.00 52 1018.5
20260505152515 60 74 2.0 6.0 0.00 0.00 0.00 52 1018.6
20260505152024 60 65 2.0 5.0 0.00 0.00 0.00 51 1018.6
20260505151540 59 57 2.0 6.0 0.00 0.00 0.00 52 1018.4
20260505151016 60 65 2.0 6.0 0.00 0.00 0.00 52 1018.4
20260505150515 60 61 1.0 5.0 0.00 0.00 0.00 52 1018.4
20260505140515 59 87 1.0 4.0 0.00 0.00 0.00 50 1018.0
20260505140112 59 94 1.0 3.0 0.00 0.00 0.00 52 1017.9
20260505125017 55 309 1.0 4.0 0.00 0.00 0.00 50 1017.5
20260505124952 55 309 1.0 4.0 0.00 0.00 0.00 50 1017.5
20260505124020 54 270 1.0 3.0 0.00 0.00 0.00 51 1017.5
20260505123520 54 268 1.0 3.0 0.00 0.00 0.00 51 1017.4
20260505123057 54 259 2.0 3.0 0.00 0.00 0.00 51 1017.4
20260505122519 55 259 1.0 2.0 0.00 0.00 0.00 50 1017.4
20260505122016 55 262 1.0 2.0 0.00 0.00 0.00 50 1017.4
20260505121557 55 262 1.0 2.0 0.00 0.00 0.00 50 1017.4
20260505121016 55 267 1.0 3.0 0.00 0.00 0.00 50 1017.4
20260505120516 55 267 1.0 3.0 0.00 0.00 0.00 49 1017.4
20260505120113 55 271 1.0 2.0 0.00 0.00 0.00 48 1017.3
20260505115517 55 271 1.0 2.0 0.00 0.00 0.00 48 1017.4
20260505115016 55 271 0.0 2.0 0.00 0.00 0.00 48 1017.4
20260505114604 55 271 0.0 2.0 0.00 0.00 0.00 48 1017.4
20260505114019 55 271 1.0 3.0 0.00 0.00 0.00 49 1017.4
20260505113653 55 273 1.0 3.0 0.00 0.00 0.00 48 1017.4
20260505113102 55 288 0.0 2.0 0.00 0.00 0.00 48 1017.4
20260505112517 55 288 1.0 2.0 0.00 0.00 0.00 48 1017.4
20260505112015 55 288 1.0 2.0 0.00 0.00 0.00 48 1017.4
20260505111536 55 288 0.0 2.0 0.00 0.00 0.00 48 1017.3
20260505111015 55 288 0.0 3.0 0.00 0.00 0.00 48 1017.2
20260505110518 55 246 2.0 3.0 0.00 0.00 0.00 48 1017.2
20260505102016 56 279 0.0 2.0 0.00 0.00 0.00 48 1017.0
20260505101538 56 279 0.0 2.0 0.00 0.00 0.00 48 1017.0
20260505101015 56 297 1.0 3.0 0.00 0.00 0.00 49 1017.1
20260505100516 56 296 1.0 6.0 0.00 0.00 0.00 47 1017.1
20260505100034 56 88 1.0 6.0 0.00 0.00 0.00 46 1017.0
20260505095513 56 324 0.0 6.0 0.00 0.00 0.00 47 1017.1
20260505093028 56 319 0.0 4.0 0.00 0.00 0.00 47 1017.0
20260505092510 56 342 1.0 4.0 0.00 0.00 0.00 47 1016.9
20260505092014 56 288 1.0 2.0 0.00 0.00 0.00 47 1016.8
20260505091532 56 281 0.0 2.0 0.00 0.00 0.00 47 1016.8
20260505091011 56 277 1.0 2.0 0.00 0.00 0.00 47 1016.8
20260505090509 56 277 0.0 2.0 0.00 0.00 0.00 47 1016.8
20260505090027 56 277 0.0 2.0 0.00 0.00 0.00 48 1016.8
20260505085511 56 277 1.0 3.0 0.00 0.00 0.00 48 1016.9
20260505085009 56 280 1.0 3.0 0.00 0.00 0.00 48 1016.8
20260505084543 56 272 1.0 3.0 0.00 0.00 0.00 49 1016.8
20260505084009 56 265 1.0 3.0 0.00 0.00 0.00 49 1016.8
20260505083507 56 307 1.0 3.0 0.00 0.00 0.00 49 1016.8
20260505083043 56 271 0.0 4.0 0.00 0.00 0.00 50 1016.8
20260505082510 56 269 1.0 3.0 0.00 0.00 0.00 50 1016.9
20260505082011 56 260 1.0 2.0 0.00 0.00 0.00 51 1016.9
20260505081541 56 287 0.0 2.0 0.00 0.00 0.00 51 1017.0
20260505081014 56 273 1.0 2.0 0.00 0.00 0.00 51 1016.9
20260505080512 56 273 0.0 3.0 0.00 0.00 0.00 51 1016.9
20260505080039 56 275 2.0 3.0 0.00 0.00 0.00 52 1016.9
20260505075508 56 279 2.0 3.0 0.00 0.00 0.00 51 1016.9
20260505075011 56 249 2.0 3.0 0.00 0.00 0.00 51 1016.9
20260505074527 56 311 1.0 3.0 0.00 0.00 0.00 50 1017.0
20260505074012 56 273 1.0 4.0 0.00 0.00 0.00 50 1016.8
20260505073508 56 265 2.0 4.0 0.00 0.00 0.00 50 1016.8
20260505073036 56 250 2.0 3.0 0.00 0.00 0.00 50 1016.8
20260505072513 57 252 2.0 4.0 0.00 0.00 0.00 49 1016.7
20260505072011 57 263 2.0 4.0 0.00 0.00 0.00 49 1016.8
20260505071541 57 254 2.0 3.0 0.00 0.00 0.00 49 1016.7
20260505071009 57 257 2.0 3.0 0.00 0.00 0.00 49 1016.6
20260505070515 57 252 2.0 3.0 0.00 0.00 0.00 48 1016.7
20260505070039 57 254 2.0 4.0 0.00 0.00 0.00 48 1016.8
20260505065511 57 245 2.0 4.0 0.00 0.00 0.00 48 1016.6
20260505065011 57 268 2.0 4.0 0.00 0.00 0.00 48 1016.6
20260505064528 57 242 2.0 5.0 0.00 0.00 0.00 48 1016.6
20260505064011 57 240 3.0 5.0 0.00 0.00 0.00 49 1016.6
20260505063508 57 244 3.0 4.0 0.00 0.00 0.00 48 1016.6
20260505063037 57 242 3.0 4.0 0.00 0.00 0.00 49 1016.6
20260505062509 57 248 2.0 4.0 0.00 0.00 0.00 48 1016.6
20260505062009 58 242 2.0 4.0 0.00 0.00 0.00 48 1016.6
20260505061530 58 247 2.0 5.0 0.00 0.00 0.00 48 1016.6
20260505061010 58 253 3.0 5.0 0.00 0.00 0.00 47 1016.6
20260505060510 58 245 3.0 4.0 0.00 0.00 0.00 47 1016.6
20260505060050 58 244 3.0 4.0 0.00 0.00 0.00 47 1016.4
20260505055512 58 250 2.0 4.0 0.00 0.00 0.00 47 1016.5
20260505055011 58 248 3.0 5.0 0.00 0.00 0.00 47 1016.5
20260505054531 58 242 3.0 5.0 0.00 0.00 0.00 47 1016.4
20260505054017 58 254 3.0 5.0 0.00 0.00 0.00 46 1016.4
20260505053508 58 244 3.0 4.0 0.00 0.00 0.00 46 1016.4
20260505053027 58 262 2.0 4.0 0.00 0.00 0.00 45 1016.4
20260505052512 59 247 2.0 4.0 0.00 0.00 0.00 45 1016.2
20260505052012 58 246 3.0 4.0 0.00 0.00 0.00 45 1016.2
20260505051528 58 259 2.0 5.0 0.00 0.00 0.00 45 1016.3
20260505051010 59 248 3.0 5.0 0.00 0.00 0.00 45 1016.3
20260505050510 59 215 2.0 4.0 0.00 0.00 0.00 45 1016.1
20260505041545 60 321 0.0 3.0 0.00 0.00 0.00 42 1015.9
20260505041012 60 321 1.0 3.0 0.00 0.00 0.00 42 1015.9
20260505040513 60 5 0.0 2.0 0.00 0.00 0.00 41 1015.9
20260505040033 60 5 0.0 2.0 0.00 0.00 0.00 42 1015.8
20260505035509 60 5 0.0 2.0 0.00 0.00 0.00 42 1015.8
20260505035011 60 5 1.0 2.0 0.00 0.00 0.00 42 1015.8
20260505034529 60 20 0.0 2.0 0.00 0.00 0.00 42 1015.8
20260505034013 60 20 0.0 2.0 0.00 0.00 0.00 42 1015.7
20260505033513 61 28 1.0 2.0 0.00 0.00 0.00 41 1015.6
20260505033033 61 28 0.0 2.0 0.00 0.00 0.00 40 1015.5
20260505032511 61 28 0.0 1.0 0.00 0.00 0.00 40 1015.5
20260505032014 61 28 0.0 1.0 0.00 0.00 0.00 41 1015.5
20260505031530 61 28 0.0 1.0 0.00 0.00 0.00 41 1015.6
20260505031010 60 28 0.0 1.0 0.00 0.00 0.00 41 1015.6
20260505030512 60 28 0.0 1.0 0.00 0.00 0.00 41 1015.4
20260505030028 60 28 0.0 1.0 0.00 0.00 0.00 41 1015.3
20260505025515 60 28 0.0 1.0 0.00 0.00 0.00 41 1015.2
20260505025012 60 28 0.0 1.0 0.00 0.00 0.00 42 1015.1
20260505024527 60 28 0.0 1.0 0.00 0.00 0.00 42 1015.1
20260505024015 61 28 0.0 1.0 0.00 0.00 0.00 43 1015.1
20260505023512 61 32 0.0 1.0 0.00 0.00 0.00 42 1015.0
20260505023032 61 32 0.0 1.0 0.00 0.00 0.00 42 1015.1
20260505022510 61 32 0.0 1.0 0.00 0.00 0.00 41 1015.2
20260505022012 62 32 0.0 3.0 0.00 0.00 0.00 40 1015.1
20260505021530 62 38 0.0 3.0 0.00 0.00 0.00 41 1015.1
20260505021010 62 27 0.0 3.0 0.00 0.00 0.00 40 1015.2
20260505020510 63 38 1.0 3.0 0.00 0.00 0.00 39 1015.1
20260505020039 64 10 0.0 2.0 0.00 0.00 0.00 38 1015.1
20260505015514 65 48 0.0 2.0 0.00 0.00 0.00 38 1015.1
20260505015014 65 33 0.0 2.0 0.00 0.00 0.00 37 1015.3
20260505014538 65 29 0.0 2.0 0.00 0.00 0.00 36 1015.3
20260505014012 65 40 0.0 3.0 0.00 0.00 0.00 35 1015.4
20260505013513 66 29 1.0 3.0 0.00 0.00 0.00 33 1015.1
20260505013039 66 109 1.0 4.0 0.00 0.00 0.00 33 1015.0
20260505012514 66 40 1.0 4.0 0.00 0.00 0.00 31 1015.0
20260505012011 66 79 1.0 4.0 0.00 0.00 0.00 31 1015.0
20260505011535 66 5 1.0 5.0 0.00 0.00 0.00 34 1015.0
20260505011009 67 21 1.0 4.0 0.00 0.00 0.00 34 1015.1
20260505010509 67 325 1.0 4.0 0.00 0.00 0.00 34 1015.2
20260505010030 67 360 2.0 6.0 0.00 0.00 0.00 33 1015.3
20260505005511 67 214 1.0 6.0 0.00 0.00 0.00 31 1015.1
20260505005012 67 82 2.0 4.0 0.00 0.00 0.00 29 1015.2
20260505004540 68 109 0.0 4.0 0.00 0.00 0.00 29 1015.0
20260505004009 68 65 0.0 6.0 0.00 0.00 0.00 29 1015.0
20260505003511 67 337 1.0 6.0 0.00 0.00 0.00 28 1015.0
20260505003052 68 61 1.0 6.0 0.00 0.00 0.00 29 1015.0
20260505002513 68 352 1.0 6.0 0.00 0.00 0.00 28 1015.1
20260505002012 68 238 2.0 7.0 0.00 0.00 0.00 27 1015.1
20260505001530 69 325 1.0 6.0 0.00 0.00 0.00 28 1015.1
20260505001010 69 34 2.0 6.0 0.00 0.00 0.00 27 1015.0
20260505000514 70 164 1.0 6.0 0.00 0.00 0.00 27 1015.1
20260505000034 70 348 1.0 4.0 0.00 0.00 0.00 27 1015.1
20260504235513 70 156 1.0 6.0 0.00 0.00 0.00 27 1015.1
20260504235012 70 360 1.0 6.0 0.00 0.00 0.00 27 1015.1
20260504234533 71 32 1.0 5.0 0.00 0.00 0.00 28 1015.2
20260504234016 71 5 2.0 4.0 0.00 0.00 0.00 28 1015.3
20260504233510 71 348 0.0 5.0 0.00 0.00 0.00 27 1015.2
20260504233035 71 60 2.0 6.0 0.00 0.00 0.00 26 1015.3
20260504232515 71 352 3.0 6.0 0.00 0.00 0.00 24 1015.4
20260504232010 71 360 2.0 5.0 0.00 0.00 0.00 25 1015.4
20260504231530 71 46 2.0 7.0 0.00 0.00 0.00 28 1015.5
20260504231014 70 69 0.0 9.0 0.00 0.00 0.00 32 1015.4
20260504230514 70 194 2.0 6.0 0.00 0.00 0.00 26 1015.5
20260504230027 70 31 2.0 5.0 0.00 0.00 0.00 33 1015.5
20260504225512 70 47 1.0 6.0 0.00 0.00 0.00 32 1015.6
20260504225011 70 34 1.0 6.0 0.00 0.00 0.00 31 1015.5
20260504224534 70 17 1.0 8.0 0.00 0.00 0.00 32 1015.6
20260504224010 70 34 2.0 8.0 0.00 0.00 0.00 28 1015.6
20260504223511 70 104 2.0 11.0 0.00 0.00 0.00 30 1015.7
20260504223046 70 50 3.0 11.0 0.00 0.00 0.00 29 1015.7
20260504222517 71 36 2.0 11.0 0.00 0.00 0.00 30 1015.8
20260504222012 70 84 4.0 11.0 0.00 0.00 0.00 27 1015.6
20260504221530 70 272 2.0 10.0 0.00 0.00 0.00 31 1015.6
20260504221011 70 141 3.0 9.0 0.00 0.00 0.00 30 1015.7